• In Moldova, Republic
  • List of Countries
  • For 7 days
  • Water Temperature
  • Satellite Maps
  • Weather Map
  • Weather Widgets
  • user-avatar
    Login

    Hourly Weather Novoe

    Today, 23 October, Tuesday

    Time Temperature Precipitation Wind Pressure Humidity
    00:00 +5°C° 0.1 mm 3 mps 742 mmHg 89%
    01:00 +4°C° 0.1 mm 3 mps 742 mmHg 90%
    02:00 +4°C° 0.1 mm 3 mps 741 mmHg 91%
    03:00 +3°C° 0 mm 3 mps 741 mmHg 92%
    04:00 +3°C° 0 mm 2 mps 741 mmHg 94%
    05:00 +3°C° 0 mm 2 mps 741 mmHg 95%
    06:00 +3°C° 0 mm 2 mps 740 mmHg 94%
    07:00 +3°C° 0 mm 2 mps 740 mmHg 93%
    08:00 +3°C° 0 mm 2 mps 739 mmHg 92%
    09:00 +3°C° 0 mm 3 mps 738 mmHg 87%
    10:00 +4°C° 0 mm 3 mps 738 mmHg 81%
    11:00 +5°C° 0 mm 3 mps 737 mmHg 75%
    12:00 +5°C° 0 mm 4 mps 736 mmHg 74%
    13:00 +6°C° 0 mm 4 mps 735 mmHg 72%
    14:00 +6°C° 0 mm 4 mps 734 mmHg 71%
    15:00 +5°C° 0 mm 4 mps 732 mmHg 73%
    16:00 +5°C° 0 mm 4 mps 731 mmHg 75%
    17:00 +4°C° 0 mm 4 mps 730 mmHg 77%
    18:00 +4°C° 0 mm 4 mps 729 mmHg 77%
    19:00 +3°C° 0 mm 5 mps 728 mmHg 78%
    20:00 +3°C° 0 mm 5 mps 726 mmHg 78%
    21:00 +3°C° 0.2 mm 5 mps 725 mmHg 80%
    22:00 +3°C° 0.2 mm 5 mps 724 mmHg 81%
    23:00 +3°C° 0.2 mm 5 mps 723 mmHg 83%

    Tomorrow, 24 October, Wednesday

    Time Temperature Precipitation Wind Pressure Humidity
    00:00 +4°C° 0.7 mm 4 mps 722 mmHg 85%
    01:00 +4°C° 0.7 mm 4 mps 721 mmHg 86%
    02:00 +4°C° 0.7 mm 4 mps 720 mmHg 88%
    03:00 +4°C° 0.4 mm 3 mps 720 mmHg 90%
    04:00 +4°C° 0.4 mm 3 mps 719 mmHg 91%
    05:00 +5°C° 0.4 mm 2 mps 719 mmHg 92%
    06:00 +5°C° 0.3 mm 2 mps 719 mmHg 92%
    07:00 +5°C° 0.3 mm 2 mps 719 mmHg 92%
    08:00 +5°C° 0.3 mm 2 mps 719 mmHg 92%
    09:00 +5°C° 0.1 mm 2 mps 719 mmHg 89%
    10:00 +6°C° 0.1 mm 2 mps 720 mmHg 86%
    11:00 +6°C° 0.1 mm 2 mps 720 mmHg 83%
    12:00 +6°C° 0.1 mm 2 mps 720 mmHg 83%
    13:00 +7°C° 0.1 mm 2 mps 721 mmHg 82%
    14:00 +7°C° 0.1 mm 2 mps 721 mmHg 82%
    15:00 +6°C° 0.1 mm 2 mps 722 mmHg 84%
    16:00 +6°C° 0.1 mm 2 mps 723 mmHg 87%
    17:00 +5°C° 0.1 mm 2 mps 723 mmHg 89%
    18:00 +4°C° 0 mm 3 mps 724 mmHg 89%
    19:00 +4°C° 0 mm 3 mps 724 mmHg 88%
    20:00 +4°C° 0 mm 4 mps 725 mmHg 88%
    21:00 +4°C° 0.1 mm 4 mps 725 mmHg 87%
    22:00 +4°C° 0.1 mm 4 mps 726 mmHg 87%
    23:00 +3°C° 0.1 mm 4 mps 727 mmHg 86%

    Day after tomorrow, 25 October, Thursday

    Time Temperature Precipitation Wind Pressure Humidity
    00:00 +3°C° 0.2 mm 4 mps 727 mmHg 86%
    01:00 +3°C° 0.2 mm 4 mps 728 mmHg 86%
    02:00 +3°C° 0.2 mm 4 mps 728 mmHg 86%
    03:00 +1°C° 0.1 mm 4 mps 728 mmHg 86%
    04:00 +1°C° 0.1 mm 4 mps 728 mmHg 87%
    05:00 0°C° 0.1 mm 4 mps 728 mmHg 87%
    06:00 0°C° 0 mm 4 mps 729 mmHg 87%
    07:00 0°C° 0 mm 4 mps 729 mmHg 88%
    08:00 -1°C° 0 mm 4 mps 729 mmHg 88%
    09:00 0°C° 0 mm 4 mps 729 mmHg 85%
    10:00 +2°C° 0 mm 3 mps 729 mmHg 82%
    11:00 +3°C° 0 mm 3 mps 729 mmHg 79%
    12:00 +3°C° 0 mm 3 mps 728 mmHg 78%
    13:00 +3°C° 0 mm 3 mps 728 mmHg 77%
    14:00 +4°C° 0 mm 3 mps 728 mmHg 75%
    15:00 +3°C° 0 mm 3 mps 728 mmHg 78%
    16:00 +3°C° 0 mm 3 mps 728 mmHg 80%
    17:00 +2°C° 0 mm 3 mps 728 mmHg 82%
    18:00 +2°C° 0 mm 3 mps 729 mmHg 85%
    19:00 +1°C° 0 mm 3 mps 729 mmHg 87%
    20:00 +2°C° 0 mm 2 mps 729 mmHg 90%
    21:00 +1°C° 0 mm 2 mps 729 mmHg 91%
    22:00 +1°C° 0 mm 2 mps 729 mmHg 92%
    23:00 +1°C° 0 mm 2 mps 730 mmHg 93%

    26 October, Friday

    Time Temperature Precipitation Wind Pressure Humidity
    00:00 -1°C° 0 mm 2 mps 730 mmHg 94%
    01:00 -1°C° 0 mm 2 mps 730 mmHg 94%
    02:00 -1°C° 0 mm 2 mps 731 mmHg 95%
    03:00 -1°C° 0 mm 2 mps 731 mmHg 95%
    04:00 -1°C° 0 mm 3 mps 731 mmHg 95%
    05:00 -1°C° 0 mm 3 mps 732 mmHg 95%
    06:00 -1°C° 0.1 mm 3 mps 732 mmHg 94%
    07:00 0°C° 0.1 mm 3 mps 732 mmHg 92%
    08:00 0°C° 0.1 mm 3 mps 733 mmHg 91%
    09:00 +1°C° 0 mm 3 mps 733 mmHg 87%
    10:00 +1°C° 0 mm 4 mps 733 mmHg 83%
    11:00 +3°C° 0 mm 4 mps 734 mmHg 79%
    12:00 +3°C° 0 mm 4 mps 734 mmHg 76%
    13:00 +4°C° 0 mm 4 mps 734 mmHg 74%
    14:00 +4°C° 0 mm 4 mps 734 mmHg 72%
    15:00 +3°C° 0.1 mm 4 mps 735 mmHg 75%
    16:00 +3°C° 0.1 mm 3 mps 735 mmHg 78%
    17:00 +2°C° 0.1 mm 3 mps 735 mmHg 81%
    18:00 +3°C° 0 mm 2 mps 736 mmHg 84%
    19:00 +2°C° 0 mm 2 mps 736 mmHg 87%
    20:00 +2°C° 0 mm 2 mps 737 mmHg 90%
    21:00 +1°C° 0 mm 2 mps 737 mmHg 92%
    22:00 +1°C° 0 mm 2 mps 737 mmHg 93%
    23:00 +1°C° 0 mm 2 mps 738 mmHg 95%

    27 October, Saturday

    Time Temperature Precipitation Wind Pressure Humidity
    00:00 -1°C° 0 mm 2 mps 738 mmHg 95%
    01:00 -1°C° 0 mm 2 mps 738 mmHg 95%
    02:00 -1°C° 0 mm 2 mps 738 mmHg 96%
    03:00 -1°C° 0 mm 2 mps 738 mmHg 96%
    04:00 -1°C° 0 mm 2 mps 738 mmHg 95%
    05:00 -1°C° 0 mm 2 mps 738 mmHg 95%
    06:00 0°C° 0.1 mm 3 mps 738 mmHg 93%
    07:00 +1°C° 0.1 mm 3 mps 737 mmHg 91%
    08:00 0°C° 0.1 mm 4 mps 737 mmHg 89%
    09:00 +1°C° 0.6 mm 4 mps 736 mmHg 87%
    10:00 +2°C° 0.6 mm 5 mps 736 mmHg 85%
    11:00 +3°C° 0.6 mm 5 mps 735 mmHg 83%
    12:00 +3°C° 0.5 mm 5 mps 735 mmHg 84%
    13:00 +3°C° 0.5 mm 5 mps 734 mmHg 84%
    14:00 +5°C° 0.5 mm 5 mps 734 mmHg 85%
    15:00 +5°C° 0.2 mm 5 mps 734 mmHg 86%
    16:00 +5°C° 0.2 mm 5 mps 734 mmHg 87%
    17:00 +6°C° 0.2 mm 5 mps 734 mmHg 88%
    18:00 +6°C° 0.1 mm 4 mps 734 mmHg 89%
    19:00 +6°C° 0.1 mm 4 mps 734 mmHg 90%
    20:00 +6°C° 0.1 mm 4 mps 735 mmHg 91%
    21:00 +5°C° 0 mm 3 mps 735 mmHg 92%
    22:00 +5°C° 0 mm 3 mps 735 mmHg 93%
    23:00 +6°C° 0 mm 2 mps 735 mmHg 95%

    28 October, Sunday

    Time Temperature Precipitation Wind Pressure Humidity
    00:00 +5°C° 0 mm 2 mps 735 mmHg 95%
    01:00 +5°C° 0 mm 2 mps 736 mmHg 96%
    02:00 +4°C° 0 mm 2 mps 736 mmHg 96%
    03:00 +4°C° 0 mm 2 mps 736 mmHg 96%
    04:00 +4°C° 0 mm 2 mps 736 mmHg 96%
    05:00 +5°C° 0 mm 1 mps 736 mmHg 96%
    06:00 +5°C° 0 mm 1 mps 736 mmHg 95%
    07:00 +5°C° 0 mm 1 mps 736 mmHg 94%
    08:00 +5°C° 0 mm 1 mps 736 mmHg 94%
    09:00 +6°C° 0 mm 1 mps 736 mmHg 92%
    10:00 +6°C° 0 mm 1 mps 736 mmHg 90%
    11:00 +7°C° 0 mm 1 mps 736 mmHg 88%
    12:00 +7°C° 0.3 mm 1 mps 736 mmHg 89%
    13:00 +7°C° 0.3 mm 1 mps 735 mmHg 90%
    14:00 +7°C° 0.3 mm 1 mps 735 mmHg 91%
    15:00 +7°C° 0.8 mm 1 mps 735 mmHg 92%
    16:00 +6°C° 0.8 mm 1 mps 734 mmHg 92%
    17:00 +5°C° 0.8 mm 2 mps 734 mmHg 93%
    18:00 +5°C° 0.6 mm 2 mps 734 mmHg 93%
    19:00 +5°C° 0.6 mm 2 mps 734 mmHg 93%
    20:00 +5°C° 0.6 mm 2 mps 734 mmHg 93%
    21:00 +4°C° 0.5 mm 2 mps 734 mmHg 91%
    22:00 +3°C° 0.5 mm 3 mps 734 mmHg 90%
    23:00 +3°C° 0.5 mm 3 mps 735 mmHg 89%
    Show more